Flag for U.S.A. Weather past 2 weeks in Wake Island, Wake Island, U.S.A.

Now
81 °F

Passing clouds.


Feels Like: 85 °F
Forecast: 77 / 84 °F
Wind: 18 mph from East

Location: Wake Island Airfld

Current Time: Mar 31, 2015 at 7:10:09 PM

Latest Report: Mar 31, 2015 at 5:58 PM


Visibility: N/A

Pressure: 30.01 "Hg

Humidity: 73%

Dew point: 72 °F

Location of Wake IslandLocation

Historic Weather in Wake Island — Graph

°F

Wake Island temperature yesterday

Maximum temperature yesterday: 84 °F (at 3:58 PM)
Minimum temperature yesterday: 76 °F (at 1:58 AM)
Average temperature yesterday: 79 °F

Past Weeks' High & Low Weather Summary

 TemperatureHumidityPressure
High84 °F (Mar 31, 1:58 PM)94% (Mar 20, 5:59 PM)30.16 "Hg (Mar 20, 5:59 PM)
Low73 °F (Mar 18, 12:58 AM)61% (Mar 18, 10:58 AM)29.80 "Hg (Mar 21, 3:58 PM)
Average78 °F79%30.01 "Hg
* Reported Mar 16 5:58 PM — Mar 31 5:58 PM, Wake Island, Weather by CustomWeather, © 2015

Note: Actual official high and low records may vary slightly from our data, if they occured in-between our weather recording intervals... More about our weather records

Advertising

Wake Island weather history for previous 24 hours

 ConditionsComfort  
Time TempWeatherWind HumidityBarometerVisibility
5:58 PM
Tue, Mar 31
81 °FPassing clouds.18 mph73%30.01 "HgN/A
4:58 PM82 °FScattered clouds.21 mph69%30.01 "HgN/A
3:58 PM83 °FScattered clouds.21 mph68%30.02 "HgN/A
2:58 PM83 °FScattered clouds.18 mph68%30.03 "HgN/A
1:58 PM84 °FPassing clouds.20 mph68%30.05 "HgN/A
12:58 PM82 °FBroken clouds.21 mph74%30.07 "HgN/A
11:58 AM83 °FPartly sunny.20 mph67%30.11 "HgN/A
10:58 AM83 °FPassing clouds.21 mph68%30.13 "HgN/A
9:58 AM82 °FPassing clouds.18 mph70%30.13 "HgN/A
8:58 AM80 °FPassing clouds.22 mph73%30.13 "HgN/A
7:58 AM78 °FPartly sunny.20 mph83%30.11 "Hg6 mi
6:58 AM77 °FPartly cloudy.20 mph81%30.09 "HgN/A
5:58 AM77 °FClear.14 mph81%30.07 "HgN/A
4:58 AM77 °FPassing clouds.22 mph80%30.07 "HgN/A
3:58 AM77 °FPassing clouds.18 mph79%30.07 "HgN/A
2:58 AM77 °FPassing clouds.21 mph80%30.07 "HgN/A
1:58 AM78 °FPassing clouds.21 mph80%30.09 "HgN/A
12:58 AM78 °FPartly cloudy.21 mph78%30.09 "HgN/A
11:58 PM
Mon, Mar 30
78 °FPassing clouds.20 mph79%30.11 "HgN/A
10:58 PM78 °FPassing clouds.22 mph80%30.12 "HgN/A
9:58 PM78 °FPartly cloudy.21 mph83%30.12 "HgN/A
8:58 PM78 °FPassing clouds.18 mph79%30.10 "HgN/A
7:58 PM79 °FScattered clouds.21 mph78%30.09 "Hg5 mi
Weather by CustomWeather, © 2015

See weather overviewHow to use our weather pages